This is the latest recevied weather packets stored in our database for station/object KA8DUX-2. If no packets are shown the sender has not sent any weather packets the latest 10 day(s).
| Time | Temp. | Humidity | Pressure | Rain* | Wind** | Luminosity | Snow |
|---|---|---|---|---|---|---|---|
| 1777825699 | 13.33° C | 55% | 1010.5 hPa | 0 mm | - | 216 W/m² | - |
| 1777825397 | 13.33° C | 55% | 1010.4 hPa | 0 mm | - | 296 W/m² | - |
| 1777825094 | 13.33° C | 55% | 1010.3 hPa | 0 mm | - | 300 W/m² | - |
| 1777824790 | 13.33° C | 54% | 1010.4 hPa | 0 mm | - | 310 W/m² | - |
| 1777824487 | 13.33° C | 53% | 1010.5 hPa | 0 mm | - | 279 W/m² | - |
| 1777824183 | 13.33° C | 53% | 1010.6 hPa | 0 mm | - | 328 W/m² | - |
| 1777823879 | 12.78° C | 54% | 1010.6 hPa | 0 mm | - | 299 W/m² | - |
| 1777823577 | 13.33° C | 52% | 1010.8 hPa | 0 mm | - | 262 W/m² | - |
| 1777823273 | 13.33° C | 52% | 1010.7 hPa | 0 mm | - | 298 W/m² | - |
| 1777822971 | 13.33° C | 53% | 1010.8 hPa | 0 mm | - | 241 W/m² | - |
| 1777822669 | 12.78° C | 54% | 1010.7 hPa | 0 mm | - | 243 W/m² | - |
| 1777822367 | 12.78° C | 54% | 1011.1 hPa | 0 mm | - | 190 W/m² | - |
| 1777822064 | 12.22° C | 55% | 1011 hPa | 0 mm | - | 160 W/m² | - |
| 1777821762 | 12.22° C | 53% | 1010.8 hPa | 0 mm | - | 146 W/m² | - |
| 1777821459 | 12.22° C | 54% | 1010.8 hPa | 0 mm | - | 153 W/m² | - |
| 1777821156 | 12.22° C | 54% | 1010.8 hPa | 0 mm | - | 163 W/m² | - |
| 1777820853 | 12.22° C | 55% | 1010.7 hPa | 0 mm | - | 223 W/m² | - |
| 1777820549 | 12.22° C | 54% | 1010.8 hPa | 0 mm | - | 230 W/m² | - |
| 1777820246 | 12.78° C | 53% | 1010.8 hPa | 0 mm | - | 225 W/m² | - |
| 1777819943 | 12.22° C | 55% | 1010.7 hPa | 0 mm | - | 261 W/m² | - |
| 1777819640 | 11.67° C | 55% | 1010.9 hPa | 0 mm | - | 329 W/m² | - |
| 1777819339 | 11.67° C | 55% | 1010.6 hPa | 0 mm | - | 171 W/m² | - |
| 1777819035 | 11.67° C | 54% | 1010.9 hPa | 0 mm | - | 150 W/m² | - |
| 1777818732 | 12.22° C | 54% | 1010.9 hPa | 0 mm | - | 135 W/m² | - |
| 1777818429 | 12.22° C | 54% | 1010.8 hPa | 0 mm | - | 293 W/m² | - |
* Rain latest hour (hover to see other rain measurements)
** Current wind speed in m/s (hover to see current wind gust speed)